CZ-2C R/B, 63127

Orbit data source: Space-Track

CZ-2C R/B, 63127 is space debris in SSO originally from a launch on Thu, 27 Feb 2025 UTC launched from the Jiuquan Satellite Launch Center, China (JSC). Debris objects in space refer to the collection of defunct objects orbiting the Earth. Examples of debris include non-operational satellites, rocket bodies, and fragments generated from explosions, collisions, or faulty payload assembly.

Loading next visibility...
Identifier
63127, 2025-040C
Orbit
SSO
Country
Flag of CNCN / PRC
Related business
Manufacturer
CALT
Mission
Spacecraft
Bus & Motor
CZ-2 STAGE 2, Unknown motor
Mass
~3,800 kg wet, ~3,800 kg dry
Launch date (UTC)
2025-02-27 (1 year ago)
Launch vehicle
Unknown
Launch site
Jiuquan Satellite Launch Center, China (JSC)
Object type
Payload
Rocket body
Debris
Shape & HBR
Cyl, 3.6 m
Radar Cross Section
23.715 m², Large (>1 m²)

Expand to show TLE details & history
Last TLE update: 7 hours ago

TLE from 7 hours ago
0 CZ-2C R/B
1 63127U 25040C   26164.82168916  .00013712  00000-0  36393-3 0  9991
2 63127  97.1746 275.2026 0014143  77.6963 282.5865 15.38302849 72154
Epoch: 2026-06-13T19:43Z
TLE epoch observation values (Epoch: 2026-06-13T19:43:13.943Z)
Latitude
-0.00004°
Longitude
77.26323°
Altitude
452.157 km
Speed
7.642 km/s
True Right ascension
18h 20m 48s
True Declination
0° 00' 00"
Sunlit
Object was in full shadow at epoch
Visualization orbit readout
Latitude
Unknown
Longitude
Unknown
Altitude
Unknown
Speed
Unknown
Apparent Right ascension
Unknown
Apparent Declination
Unknown
Sunlit
N/A
Visualization observer readout
Local Sidereal Time
13:13:57
Azimuth
Unknown
Elevation
Unknown
Doppler factor
Unknown
Orbital elements
Apogee altitude
457.714 km
Perigee altitude
438.405 km
Semi-major axis
6,826.196 km
Eccentricity
0.00141
Inclination
97.1746°
RAAN
275.2026°
Arg. of periapsis
77.6963°
True anomaly
282.42827°
Mean anomaly
282.5865°
Eccentric anomaly
282.50739°
Mean motion
3.84835 °/min
Orbital period
93.55 mins
BSTAR
0.00036393
Loading maneuver chart data...
Computing Atmospheric mass density...
Loading historical data...
Loading historical data...
Loading historical data...
Loading historical data...
Loading historical data...
Loading historical data...
Loading historical data...
Other satellites on launch #40 in the year 2025 (2025-02-27 UTC)

Documentation

Showing up to 5 results
|